When you browse on this site, cookies collect data to enhance your experience and personalize the content and advertising you see.
Visit our Privacy Policy to learn more. By continuing to use the site, you agree to this use of cookies and data.
  • In Sweden
  • List of Countries
  • For 7 days
  • Water Temperature
  • Satellite Maps
  • Weather Map
  • Weather Widgets
  • user-avatar
    Login

    Hourly Weather Siodlowo

    Today, 26 June, Wednesday

    Time Temperature Precipitation Wind Pressure Humidity
    00:00 +25°C° 0 mm 2 mps 757 mmHg 81%
    01:00 +24°C° 0 mm 2 mps 757 mmHg 80%
    02:00 +24°C° 0 mm 2 mps 756 mmHg 83%
    03:00 +24°C° 0 mm 2 mps 756 mmHg 86%
    04:00 +23°C° 0 mm 2 mps 756 mmHg 88%
    05:00 +25°C° 0 mm 3 mps 756 mmHg 84%
    06:00 +26°C° 0 mm 3 mps 756 mmHg 79%
    07:00 +28°C° 0 mm 3 mps 756 mmHg 74%
    08:00 +29°C° 0 mm 3 mps 756 mmHg 68%
    09:00 +31°C° 0 mm 3 mps 755 mmHg 63%
    10:00 +33°C° 0 mm 4 mps 755 mmHg 57%
    11:00 +34°C° 0 mm 4 mps 755 mmHg 54%
    12:00 +35°C° 0 mm 4 mps 755 mmHg 52%
    13:00 +36°C° 0 mm 4 mps 755 mmHg 49%
    14:00 +36°C° 0 mm 4 mps 754 mmHg 48%
    15:00 +36°C° 0 mm 5 mps 754 mmHg 47%
    16:00 +36°C° 0 mm 5 mps 753 mmHg 46%
    17:00 +35°C° 0 mm 4 mps 753 mmHg 51%
    18:00 +33°C° 0 mm 4 mps 753 mmHg 57%
    19:00 +31°C° 0 mm 3 mps 753 mmHg 62%
    20:00 +29°C° 0.3 mm 3 mps 753 mmHg 70%
    21:00 +27°C° 0.3 mm 4 mps 753 mmHg 78%
    22:00 +25°C° 0.3 mm 5 mps 753 mmHg 86%
    23:00 +23°C° 0 mm 4 mps 753 mmHg 88%

    Tomorrow, 27 June, Thursday

    Time Temperature Precipitation Wind Pressure Humidity
    00:00 +21°C° 0 mm 4 mps 754 mmHg 90%
    01:00 +20°C° 0 mm 4 mps 754 mmHg 91%
    02:00 +19°C° 0 mm 5 mps 754 mmHg 89%
    03:00 +17°C° 0 mm 6 mps 754 mmHg 87%
    04:00 +16°C° 0 mm 7 mps 754 mmHg 85%
    05:00 +16°C° 0 mm 7 mps 754 mmHg 80%
    06:00 +16°C° 0 mm 7 mps 754 mmHg 76%
    07:00 +16°C° 0 mm 7 mps 754 mmHg 71%
    08:00 +17°C° 0 mm 7 mps 755 mmHg 67%
    09:00 +18°C° 0 mm 7 mps 755 mmHg 63%
    10:00 +20°C° 0 mm 7 mps 755 mmHg 59%
    11:00 +21°C° 0 mm 7 mps 755 mmHg 57%
    12:00 +21°C° 0 mm 7 mps 755 mmHg 56%
    13:00 +22°C° 0 mm 7 mps 755 mmHg 54%
    14:00 +22°C° 0 mm 7 mps 755 mmHg 55%
    15:00 +22°C° 0 mm 7 mps 755 mmHg 57%
    16:00 +22°C° 0 mm 7 mps 754 mmHg 58%
    17:00 +21°C° 0 mm 6 mps 754 mmHg 63%
    18:00 +20°C° 0 mm 6 mps 754 mmHg 68%
    19:00 +19°C° 0 mm 5 mps 754 mmHg 74%
    20:00 +19°C° 0 mm 5 mps 755 mmHg 76%
    21:00 +18°C° 0 mm 4 mps 755 mmHg 77%
    22:00 +17°C° 0 mm 3 mps 756 mmHg 79%
    23:00 +17°C° 0 mm 3 mps 756 mmHg 84%

    Day after tomorrow, 28 June, Friday

    Time Temperature Precipitation Wind Pressure Humidity
    00:00 +16°C° 0 mm 2 mps 756 mmHg 89%
    01:00 +15°C° 0 mm 2 mps 756 mmHg 93%
    02:00 +15°C° 0 mm 2 mps 756 mmHg 94%
    03:00 +15°C° 0 mm 2 mps 756 mmHg 94%
    04:00 +15°C° 0 mm 2 mps 756 mmHg 94%
    05:00 +16°C° 0.1 mm 2 mps 756 mmHg 91%
    06:00 +17°C° 0.1 mm 3 mps 756 mmHg 88%
    07:00 +18°C° 0.1 mm 3 mps 756 mmHg 85%
    08:00 +20°C° 0.2 mm 4 mps 756 mmHg 76%
    09:00 +21°C° 0.2 mm 4 mps 756 mmHg 67%
    10:00 +23°C° 0.2 mm 5 mps 756 mmHg 58%
    11:00 +23°C° 0.1 mm 5 mps 756 mmHg 56%
    12:00 +23°C° 0.1 mm 5 mps 756 mmHg 53%
    13:00 +25°C° 0.1 mm 5 mps 756 mmHg 50%
    14:00 +25°C° 0 mm 5 mps 756 mmHg 48%
    15:00 +25°C° 0 mm 5 mps 756 mmHg 45%
    16:00 +24°C° 0 mm 6 mps 756 mmHg 42%
    17:00 +23°C° 0 mm 5 mps 756 mmHg 47%
    18:00 +21°C° 0 mm 4 mps 756 mmHg 52%
    19:00 +20°C° 0 mm 4 mps 756 mmHg 57%
    20:00 +19°C° 0 mm 3 mps 757 mmHg 58%
    21:00 +17°C° 0 mm 3 mps 757 mmHg 59%
    22:00 +16°C° 0 mm 2 mps 757 mmHg 60%
    23:00 +15°C° 0 mm 2 mps 757 mmHg 64%

    29 June, Saturday

    Time Temperature Precipitation Wind Pressure Humidity
    00:00 +15°C° 0 mm 2 mps 757 mmHg 68%
    01:00 +14°C° 0 mm 1 mps 757 mmHg 71%
    02:00 +14°C° 0 mm 1 mps 757 mmHg 73%
    03:00 +13°C° 0 mm 1 mps 757 mmHg 74%
    04:00 +12°C° 0 mm 0 mps 757 mmHg 75%
    05:00 +15°C° 0 mm 1 mps 757 mmHg 70%
    06:00 +18°C° 0 mm 1 mps 757 mmHg 65%
    07:00 +18°C° 0 mm 2 mps 757 mmHg 59%
    08:00 +20°C° 0 mm 2 mps 757 mmHg 54%
    09:00 +22°C° 0 mm 3 mps 757 mmHg 50%
    10:00 +24°C° 0 mm 3 mps 757 mmHg 45%
    11:00 +25°C° 0 mm 3 mps 757 mmHg 43%
    12:00 +26°C° 0 mm 3 mps 756 mmHg 41%
    13:00 +27°C° 0 mm 3 mps 756 mmHg 39%
    14:00 +27°C° 0 mm 3 mps 756 mmHg 39%
    15:00 +27°C° 0 mm 3 mps 755 mmHg 39%
    16:00 +27°C° 0 mm 3 mps 755 mmHg 39%
    17:00 +26°C° 0 mm 2 mps 755 mmHg 45%
    18:00 +25°C° 0 mm 2 mps 755 mmHg 51%
    19:00 +24°C° 0 mm 1 mps 754 mmHg 56%
    20:00 +23°C° 0 mm 1 mps 754 mmHg 59%
    21:00 +21°C° 0 mm 1 mps 754 mmHg 61%
    22:00 +20°C° 0 mm 1 mps 754 mmHg 64%
    23:00 +19°C° 0 mm 1 mps 754 mmHg 63%

    30 June, Sunday

    Time Temperature Precipitation Wind Pressure Humidity
    00:00 +19°C° 0 mm 1 mps 754 mmHg 63%
    01:00 +18°C° 0 mm 2 mps 754 mmHg 62%
    02:00 +17°C° 0 mm 2 mps 754 mmHg 65%
    03:00 +17°C° 0 mm 2 mps 754 mmHg 67%
    04:00 +17°C° 0 mm 2 mps 753 mmHg 69%
    05:00 +18°C° 0 mm 3 mps 753 mmHg 67%
    06:00 +20°C° 0 mm 3 mps 753 mmHg 64%
    07:00 +22°C° 0 mm 3 mps 753 mmHg 62%
    08:00 +25°C° 0 mm 3 mps 753 mmHg 57%
    09:00 +26°C° 0 mm 4 mps 753 mmHg 51%
    10:00 +28°C° 0 mm 4 mps 753 mmHg 46%
    11:00 +29°C° 0 mm 4 mps 752 mmHg 44%
    12:00 +30°C° 0 mm 5 mps 752 mmHg 43%
    13:00 +32°C° 0 mm 5 mps 752 mmHg 42%
    14:00 +32°C° 0 mm 5 mps 751 mmHg 42%
    15:00 +32°C° 0 mm 5 mps 751 mmHg 42%
    16:00 +33°C° 0 mm 6 mps 750 mmHg 42%
    17:00 +30°C° 0 mm 5 mps 750 mmHg 47%
    18:00 +29°C° 0 mm 5 mps 750 mmHg 52%
    19:00 +28°C° 0 mm 4 mps 749 mmHg 57%
    20:00 +27°C° 0 mm 4 mps 749 mmHg 58%
    21:00 +26°C° 0 mm 4 mps 750 mmHg 59%
    22:00 +23°C° 0 mm 4 mps 750 mmHg 60%
    23:00 +22°C° 0 mm 4 mps 750 mmHg 69%

    1 July, Monday

    Time Temperature Precipitation Wind Pressure Humidity
    00:00 +21°C° 0 mm 3 mps 750 mmHg 77%
    01:00 +20°C° 0 mm 3 mps 750 mmHg 85%
    02:00 +20°C° 0 mm 3 mps 750 mmHg 83%
    03:00 +19°C° 0 mm 3 mps 750 mmHg 81%
    04:00 +19°C° 0 mm 2 mps 751 mmHg 78%
    05:00 +19°C° 0 mm 3 mps 751 mmHg 73%
    06:00 +20°C° 0 mm 3 mps 751 mmHg 67%
    07:00 +20°C° 0 mm 4 mps 751 mmHg 61%
    08:00 +21°C° 0 mm 4 mps 751 mmHg 58%
    09:00 +22°C° 0 mm 4 mps 751 mmHg 54%
    10:00 +23°C° 0 mm 5 mps 751 mmHg 51%
    11:00 +25°C° 0 mm 5 mps 751 mmHg 49%
    12:00 +26°C° 0 mm 5 mps 750 mmHg 47%
    13:00 +27°C° 0 mm 5 mps 750 mmHg 46%
    14:00 +27°C° 0 mm 5 mps 750 mmHg 46%
    15:00 +27°C° 0 mm 5 mps 749 mmHg 47%
    16:00 +27°C° 0 mm 5 mps 749 mmHg 47%
    17:00 +26°C° 0 mm 4 mps 749 mmHg 52%
    18:00 +25°C° 0 mm 3 mps 748 mmHg 56%
    19:00 +24°C° 0 mm 2 mps 748 mmHg 60%
    20:00 +21°C° 0 mm 2 mps 748 mmHg 62%
    21:00 +20°C° 0 mm 2 mps 748 mmHg 64%
    22:00 +18°C° 0 mm 3 mps 749 mmHg 66%
    23:00 +18°C° 0.1 mm 3 mps 749 mmHg 73%
    Show more